,,Stat5,,Stat1,,Stat2,,Stat3,,Stat4,,Wind1,,Wind1,
time,status,PA1M_AVG,status,PR1M_SUM,status,RH1M_AVG,status,SR1M_AVG,status,TA1M_AVG,status,W1dAve1m,status,W1sAve1m,
2002-04-24, 00:00:01,VALID,916.008,VALID,0,VALID,98.0534,VALID,0,VALID,19.778,VALID,120,VALID,0.568873,
2002-04-24, 00:01:00,VALID,915.986,VALID,0,VALID,98.089,VALID,0,VALID,19.7847,VALID,124,VALID,0.391047,
2002-04-24, 00:02:00,VALID,915.959,VALID,0,VALID,98.0471,VALID,0.0169808,VALID,19.778,VALID,128,VALID,0.603618,
2002-04-24, 00:03:00,VALID,915.923,VALID,0,VALID,98.1399,VALID,0,VALID,19.7683,VALID,140,VALID,0.887804,
2002-04-24, 00:04:00,VALID,915.881,VALID,0,VALID,98.1641,VALID,0,VALID,19.7581,VALID,142,VALID,0.863186,
2002-04-24, 00:05:00,VALID,915.861,VALID,0,VALID,98.2035,VALID,0,VALID,19.7519,VALID,152,VALID,0.733173,
2002-04-24, 00:06:00,VALID,915.84,VALID,0,VALID,98.1882,VALID,0,VALID,19.7395,VALID,148,VALID,0.75549,
2002-04-24, 00:07:00,VALID,915.836,VALID,0,VALID,98.1704,VALID,0.0169808,VALID,19.7134,VALID,143,VALID,0.874589,
2002-04-24, 00:08:00,VALID,915.827,VALID,0,VALID,98.2327,VALID,-0.0339617,VALID,19.698,VALID,124,VALID,0.796007,
2002-04-24, 00:09:00,VALID,915.821,VALID,0,VALID,98.3103,VALID,0,VALID,19.6948,VALID,115,VALID,1.13737,
2002-04-24, 00:10:00,VALID,915.806,VALID,0,VALID,98.4642,VALID,-0.0169808,VALID,19.7402,VALID,107,VALID,0.971628,
2002-04-24, 00:11:00,VALID,915.802,VALID,0,VALID,98.5188,VALID,-0.0339617,VALID,19.7628,VALID,113,VALID,1.03378,
2002-04-24, 00:12:00,VALID,915.777,VALID,0,VALID,98.4705,VALID,-0.0169808,VALID,19.772,VALID,101,VALID,0.623311,
2002-04-24, 00:13:00,VALID,915.749,VALID,0,VALID,98.5277,VALID,0,VALID,19.7914,VALID,100,VALID,0.711538,
2002-04-24, 00:14:00,VALID,915.723,VALID,0,VALID,98.5328,VALID,-0.0169808,VALID,19.8173,VALID,109,VALID,0.422508,
2002-04-24, 00:15:00,VALID,915.698,VALID,0,VALID,98.515,VALID,-0.0169808,VALID,19.8401,VALID,107,VALID,0.292067,
2002-04-24, 00:16:00,VALID,915.683,VALID,0,VALID,98.3332,VALID,0.0169808,VALID,19.8006,VALID,84,VALID,0.625822,
2002-04-24, 00:17:00,VALID,915.677,VALID,0,VALID,98.4044,VALID,-0.0169808,VALID,19.7981,VALID,85,VALID,1.01309,
2002-04-24, 00:18:00,VALID,915.669,VALID,0,VALID,98.6155,VALID,0,VALID,19.8595,VALID,109,VALID,1.08398,
2002-04-24, 00:19:00,VALID,915.667,VALID,0,VALID,98.6422,VALID,-0.0169808,VALID,19.9236,VALID,126,VALID,1.02908,
2002-04-24, 00:20:00,VALID,915.664,VALID,0,VALID,98.5875,VALID,-0.0169808,VALID,19.9666,VALID,128,VALID,0.984164,
2002-04-24, 00:21:00,VALID,915.658,VALID,0,VALID,98.4921,VALID,0,VALID,19.9626,VALID,130,VALID,0.42832,
2002-04-24, 00:22:00,VALID,915.65,VALID,0,VALID,98.4502,VALID,0,VALID,19.9527,VALID,122,VALID,0.250195,
2002-04-24, 00:23:00,VALID,915.638,VALID,0,VALID,98.3713,VALID,0,VALID,19.9492,VALID,115,VALID,0.340234,
2002-04-24, 00:24:00,VALID,915.617,VALID,0,VALID,98.2137,VALID,-0.0679233,VALID,19.9241,VALID,98,VALID,0.625,
2002-04-24, 00:25:00,VALID,915.592,VALID,0,VALID,98.2912,VALID,0,VALID,19.9112,VALID,87,VALID,0.735008,
2002-04-24, 00:26:00,VALID,915.561,VALID,0,VALID,98.192,VALID,0,VALID,19.9144,VALID,71,VALID,0.77504,
2002-04-24, 00:27:00,VALID,915.541,VALID,0,VALID,98.0394,VALID,-0.0339617,VALID,19.8784,VALID,69,VALID,0.729096,
2002-04-24, 00:28:00,VALID,915.525,VALID,0,VALID,98.145,VALID,-0.0339617,VALID,19.8893,VALID,72,VALID,0.758814,
2002-04-24, 00:29:00,VALID,915.518,VALID,0,VALID,98.1831,VALID,-0.0169808,VALID,19.9052,VALID,77,VALID,0.798725,
2002-04-24, 00:30:00,VALID,915.514,VALID,0,VALID,98.2645,VALID,-0.0339617,VALID,19.9336,VALID,92,VALID,0.853087,
2002-04-24, 00:31:00,VALID,915.516,VALID,0,VALID,98.2632,VALID,-0.0509425,VALID,19.9858,VALID,100,VALID,0.715666,
2002-04-24, 00:32:00,VALID,915.516,VALID,0,VALID,98.262,VALID,-0.0169808,VALID,20.0114,VALID,108,VALID,0.735777,
2002-04-24, 00:33:00,VALID,915.514,VALID,0,VALID,98.2073,VALID,-0.0169808,VALID,20.0367,VALID,107,VALID,0.689103,
2002-04-24, 00:34:00,VALID,915.499,VALID,0,VALID,98.1017,VALID,-0.0339617,VALID,20.0472,VALID,102,VALID,0.686899,
2002-04-24, 00:35:00,VALID,915.507,VALID,0,VALID,97.8818,VALID,0,VALID,20.0007,VALID,87,VALID,0.661258,
2002-04-24, 00:36:00,VALID,915.515,VALID,0,VALID,97.7648,VALID,-0.0169808,VALID,19.9818,VALID,79,VALID,0.668791,
2002-04-24, 00:37:00,VALID,915.518,VALID,0,VALID,97.7559,VALID,0,VALID,19.9825,VALID,77,VALID,0.590511,
2002-04-24, 00:38:00,VALID,915.521,VALID,0,VALID,97.6007,VALID,-0.0339617,VALID,19.95,VALID,75,VALID,0.213415,
2002-04-24, 00:39:00,VALID,915.523,VALID,0,VALID,97.4977,VALID,-0.0509425,VALID,19.9174,VALID,33,VALID,0.0787584,
2002-04-24, 00:40:00,VALID,915.54,VALID,0,VALID,97.7165,VALID,-0.0169808,VALID,19.9701,VALID,286,VALID,0.931055,
2002-04-24, 00:41:00,VALID,915.53,VALID,0,VALID,97.8411,VALID,-0.0339617,VALID,19.9885,VALID,277,VALID,0.71317,
2002-04-24, 00:42:00,VALID,915.524,VALID,0,VALID,97.8423,VALID,-0.0339617,VALID,19.9858,VALID,276,VALID,0.321579,
2002-04-24, 00:43:00,VALID,915.507,VALID,0,VALID,97.8347,VALID,-0.0509425,VALID,19.9726,VALID,276,VALID,0.209535,
2002-04-24, 00:44:00,VALID,915.511,VALID,0,VALID,97.8983,VALID,-0.0339617,VALID,19.9694,VALID,276,VALID,0.296669,
2002-04-24, 00:45:00,VALID,915.493,VALID,0,VALID,97.9453,VALID,-0.0169808,VALID,19.9796,VALID,263,VALID,0.229441,
2002-04-24, 00:46:00,VALID,915.487,VALID,0,VALID,98.0077,VALID,0,VALID,19.9691,VALID,260,VALID,0.374794,
2002-04-24, 00:47:00,VALID,915.478,VALID,0,VALID,98.0878,VALID,-0.0339617,VALID,19.9726,VALID,260,VALID,0.488582,
2002-04-24, 00:48:00,VALID,915.459,VALID,0,VALID,98.1717,VALID,-0.0169808,VALID,19.982,VALID,253,VALID,0.320101,
2002-04-24, 00:49:00,VALID,915.442,VALID,0,VALID,98.1844,VALID,-0.0339617,VALID,19.9756,VALID,248,VALID,0.211939,
2002-04-24, 00:50:00,VALID,915.43,VALID,0,VALID,98.192,VALID,0,VALID,19.9661,VALID,237,VALID,0.220358,
2002-04-24, 00:51:00,VALID,915.412,VALID,0,VALID,98.1386,VALID,0,VALID,19.9333,VALID,213,VALID,0.133013,
2002-04-24, 00:52:00,VALID,915.397,VALID,0,VALID,98.1323,VALID,-0.0169808,VALID,19.9042,VALID,207,VALID,0.214944,
2002-04-24, 00:53:00,VALID,915.397,VALID,0,VALID,98.1717,VALID,-0.0169808,VALID,19.8943,VALID,202,VALID,0.152138,
2002-04-24, 00:54:00,VALID,915.395,VALID,0,VALID,98.2302,VALID,0,VALID,19.9075,VALID,202,VALID,0.0344551,
2002-04-24, 00:55:00,VALID,915.42,VALID,0,VALID,98.1819,VALID,-0.0509425,VALID,19.8846,VALID,202,VALID,0.0762747,
2002-04-24, 00:56:00,VALID,915.443,VALID,0,VALID,98.1755,VALID,-0.0339617,VALID,19.8717,VALID,202,VALID,0.0889423,
2002-04-24, 00:57:00,VALID,915.452,VALID,0,VALID,98.262,VALID,-0.0169808,VALID,19.9115,VALID,202,VALID,0.194741,
2002-04-24, 00:58:00,VALID,915.46,VALID,0,VALID,98.2442,VALID,-0.0169808,VALID,19.898,VALID,202,VALID,0.195513,
2002-04-24, 00:59:00,VALID,915.456,VALID,0,VALID,98.22,VALID,0,VALID,19.8883,VALID,202,VALID,0.275735,
2002-04-24, 01:00:00,VALID,915.457,VALID,0,VALID,98.2378,VALID,0,VALID,19.8951,VALID,211,VALID,0.245312,
2002-04-24, 01:01:00,VALID,915.456,VALID,0,VALID,98.2594,VALID,0,VALID,19.8946,VALID,253,VALID,0.394848,
2002-04-24, 01:02:00,VALID,915.459,VALID,0,VALID,98.234,VALID,0.0169808,VALID,19.8849,VALID,263,VALID,0.22168,
2002-04-24, 01:03:00,VALID,915.46,VALID,0,VALID,97.9504,VALID,0,VALID,19.8202,VALID,264,VALID,0.00534539,
2002-04-24, 01:04:00,VALID,915.465,VALID,0,VALID,97.6796,VALID,0,VALID,19.7139,VALID,264,VALID,0,
2002-04-24, 01:05:00,VALID,915.457,VALID,0,VALID,97.719,VALID,0,VALID,19.6751,VALID,264,VALID,0.000844595,
2002-04-24, 01:06:00,VALID,915.459,VALID,0,VALID,97.9492,VALID,0,VALID,19.6945,VALID,264,VALID,0.00841346,
2002-04-24, 01:07:00,VALID,915.446,VALID,0,VALID,97.9542,VALID,0,VALID,19.6938,VALID,264,VALID,0.0714558,
2002-04-24, 01:08:00,VALID,915.429,VALID,0,VALID,98.0738,VALID,0,VALID,19.7166,VALID,264,VALID,0.252467,
2002-04-24, 01:09:00,VALID,915.414,VALID,0,VALID,98.2518,VALID,0,VALID,19.7492,VALID,264,VALID,0.297276,
2002-04-24, 01:10:00,VALID,915.395,VALID,0,VALID,98.1056,VALID,0,VALID,19.7462,VALID,264,VALID,0.494299,
2002-04-24, 01:11:00,VALID,915.36,VALID,0,VALID,97.9263,VALID,-0.0169808,VALID,19.6878,VALID,156,VALID,0.478468,
2002-04-24, 01:12:00,VALID,915.353,VALID,0,VALID,97.78,VALID,0.0169808,VALID,19.5906,VALID,76,VALID,0.0879407,
2002-04-24, 01:13:00,VALID,915.339,VALID,0,VALID,97.4075,VALID,0,VALID,19.4753,VALID,76,VALID,0.207031,
2002-04-24, 01:14:00,VALID,915.323,VALID,0,VALID,97.2078,VALID,0,VALID,19.3491,VALID,74,VALID,0.309261,
2002-04-24, 01:15:00,VALID,915.311,VALID,0,VALID,97.3286,VALID,-0.0169808,VALID,19.32,VALID,66,VALID,0.452691,
2002-04-24, 01:16:00,VALID,915.299,VALID,0,VALID,97.85,VALID,-0.0339617,VALID,19.3327,VALID,66,VALID,0.849451,
2002-04-24, 01:17:00,VALID,915.28,VALID,0,VALID,98.4858,VALID,0,VALID,19.4781,VALID,67,VALID,1.06152,
2002-04-24, 01:18:00,VALID,915.256,VALID,0,VALID,98.5824,VALID,0.0169808,VALID,19.5524,VALID,71,VALID,0.943462,
2002-04-24, 01:19:00,VALID,915.214,VALID,0,VALID,98.6498,VALID,0,VALID,19.5981,VALID,73,VALID,0.781661,
2002-04-24, 01:20:00,VALID,915.171,VALID,0,VALID,98.6002,VALID,0,VALID,19.6304,VALID,73,VALID,0.697574,
2002-04-24, 01:21:00,VALID,915.133,VALID,0,VALID,98.557,VALID,-0.0169808,VALID,19.6108,VALID,75,VALID,0.768709,
2002-04-24, 01:22:00,VALID,915.085,VALID,0,VALID,98.5939,VALID,-0.0169808,VALID,19.6177,VALID,91,VALID,0.954975,
2002-04-24, 01:23:00,VALID,915.065,VALID,0,VALID,98.5939,VALID,-0.0169808,VALID,19.6073,VALID,101,VALID,1.10156,
2002-04-24, 01:24:00,VALID,915.04,VALID,0,VALID,98.6841,VALID,-0.0169808,VALID,19.6371,VALID,108,VALID,1.07595,
2002-04-24, 01:25:00,VALID,915.027,VALID,0,VALID,98.6091,VALID,0,VALID,19.6393,VALID,124,VALID,0.963341,
2002-04-24, 01:26:00,VALID,915.012,VALID,0,VALID,98.4082,VALID,-0.0169808,VALID,19.611,VALID,118,VALID,1.05313,
2002-04-24, 01:27:00,VALID,915.016,VALID,0,VALID,98.2404,VALID,-0.0169808,VALID,19.5399,VALID,127,VALID,1.08093,
2002-04-24, 01:28:00,VALID,915.023,VALID,0,VALID,98.1831,VALID,0,VALID,19.4947,VALID,135,VALID,1.08694,
2002-04-24, 01:29:00,VALID,915.004,VALID,0,VALID,98.3103,VALID,0.0169808,VALID,19.4587,VALID,128,VALID,1.46115,
2002-04-24, 01:30:00,VALID,914.999,VALID,0,VALID,98.3675,VALID,-0.0339617,VALID,19.4368,VALID,127,VALID,1.03516,
2002-04-24, 01:31:00,VALID,914.979,VALID,0,VALID,98.44,VALID,-0.0339617,VALID,19.4202,VALID,120,VALID,0.788672,
2002-04-24, 01:32:00,VALID,914.948,VALID,0,VALID,98.5964,VALID,0,VALID,19.4229,VALID,113,VALID,1.1322,
2002-04-24, 01:33:00,VALID,914.926,VALID,0,VALID,98.6269,VALID,0,VALID,19.4259,VALID,116,VALID,1.07126,
2002-04-24, 01:34:00,VALID,914.906,VALID,0,VALID,98.6841,VALID,0,VALID,19.4398,VALID,121,VALID,0.960547,
2002-04-24, 01:35:00,VALID,914.905,VALID,0,VALID,98.7159,VALID,-0.0509425,VALID,19.4331,VALID,114,VALID,1.0629,
2002-04-24, 01:36:00,VALID,914.899,VALID,0,VALID,98.707,VALID,-0.0169808,VALID,19.4463,VALID,97,VALID,0.826172,
2002-04-24, 01:37:00,VALID,914.882,VALID,0,VALID,98.6562,VALID,-0.0339617,VALID,19.3943,VALID,88,VALID,0.95613,
2002-04-24, 01:38:00,VALID,914.888,VALID,0,VALID,98.7121,VALID,0,VALID,19.3841,VALID,95,VALID,0.916349,
2002-04-24, 01:39:00,VALID,914.887,VALID,0,VALID,98.7655,VALID,0,VALID,19.3742,VALID,100,VALID,0.37141,
2002-04-24, 01:40:00,VALID,914.883,VALID,0,VALID,98.8088,VALID,0.0169808,VALID,19.3946,VALID,101,VALID,0,
2002-04-24, 01:41:00,VALID,914.881,VALID,0,VALID,98.8088,VALID,-0.0169808,VALID,19.3911,VALID,69,VALID,0.0447266,
2002-04-24, 01:42:00,VALID,914.877,VALID,0,VALID,98.7007,VALID,-0.0169808,VALID,19.3258,VALID,46,VALID,0.189977,
2002-04-24, 01:43:00,VALID,914.878,VALID,0,VALID,98.7503,VALID,0,VALID,19.3392,VALID,310,VALID,0.264509,
2002-04-24, 01:44:00,VALID,914.861,VALID,0,VALID,98.8113,VALID,0,VALID,19.3615,VALID,303,VALID,0.00878906,
2002-04-24, 01:45:00,VALID,914.848,VALID,0,VALID,98.8278,VALID,0,VALID,19.3976,VALID,303,VALID,0,
2002-04-24, 01:46:00,VALID,914.829,VALID,0,VALID,98.8266,VALID,0,VALID,19.3978,VALID,303,VALID,0,
2002-04-24, 01:47:00,VALID,914.81,VALID,0,VALID,98.8126,VALID,0,VALID,19.3779,VALID,303,VALID,0,
2002-04-24, 01:48:00,VALID,914.786,VALID,0,VALID,98.824,VALID,0,VALID,19.407,VALID,303,VALID,0,
2002-04-24, 01:49:00,VALID,914.75,VALID,0,VALID,98.8291,VALID,0,VALID,19.4232,VALID,303,VALID,0,
2002-04-24, 01:50:00,VALID,914.724,VALID,0,VALID,98.8088,VALID,-0.0339617,VALID,19.4234,VALID,303,VALID,0,
2002-04-24, 01:51:00,VALID,914.697,VALID,0,VALID,98.5099,VALID,0,VALID,19.3364,VALID,303,VALID,0.0622944,
2002-04-24, 01:52:00,VALID,914.676,VALID,0,VALID,98.4133,VALID,0,VALID,19.2132,VALID,352,VALID,0.430743,
2002-04-24, 01:53:00,VALID,914.685,VALID,0,VALID,98.3751,VALID,0,VALID,19.162,VALID,358,VALID,0.401105,
2002-04-24, 01:54:00,VALID,914.701,VALID,0,VALID,98.5684,VALID,0.0169808,VALID,19.1781,VALID,356,VALID,0.38713,
2002-04-24, 01:55:00,VALID,914.721,VALID,0,VALID,98.7007,VALID,0,VALID,19.2425,VALID,355,VALID,0.202097,
2002-04-24, 01:56:00,VALID,914.755,VALID,0,VALID,98.5341,VALID,0,VALID,19.239,VALID,355,VALID,0.158637,
2002-04-24, 01:57:00,VALID,914.776,VALID,0,VALID,98.3205,VALID,0,VALID,19.1618,VALID,355,VALID,0,
2002-04-24, 01:58:00,VALID,914.8,VALID,0,VALID,98.2709,VALID,-0.0339617,VALID,19.1297,VALID,355,VALID,0,
2002-04-24, 01:59:00,VALID,914.81,VALID,0,VALID,98.2696,VALID,0,VALID,19.0967,VALID,355,VALID,0,
2002-04-24, 02:00:00,VALID,914.822,VALID,0,VALID,98.4387,VALID,-0.0169808,VALID,19.1198,VALID,355,VALID,0,
2002-04-24, 02:01:00,VALID,914.836,VALID,0,VALID,98.7401,VALID,-0.0169808,VALID,19.2164,VALID,5,VALID,0.192145,
2002-04-24, 02:02:00,VALID,914.835,VALID,0,VALID,98.721,VALID,-0.0169808,VALID,19.3076,VALID,94,VALID,0.43935,
2002-04-24, 02:03:00,VALID,914.827,VALID,0,VALID,98.6384,VALID,-0.0339617,VALID,19.3138,VALID,111,VALID,0.628606,
2002-04-24, 02:04:00,VALID,914.834,VALID,0,VALID,98.5926,VALID,-0.0339617,VALID,19.3262,VALID,129,VALID,0.350561,
2002-04-24, 02:05:00,VALID,914.834,VALID,0,VALID,98.3688,VALID,-0.0169808,VALID,19.2847,VALID,119,VALID,0.281651,
2002-04-24, 02:06:00,VALID,914.85,VALID,0,VALID,98.2989,VALID,-0.0509425,VALID,19.2199,VALID,85,VALID,0.495994,
2002-04-24, 02:07:00,VALID,914.86,VALID,0,VALID,98.5315,VALID,-0.0509425,VALID,19.2201,VALID,85,VALID,0.629261,
2002-04-24, 02:08:00,VALID,914.857,VALID,0,VALID,98.5354,VALID,-0.0339617,VALID,19.2557,VALID,85,VALID,0.462941,
2002-04-24, 02:09:00,VALID,914.854,VALID,0,VALID,98.4832,VALID,-0.0169808,VALID,19.2656,VALID,86,VALID,0.485008,
2002-04-24, 02:10:01,VALID,914.859,VALID,0,VALID,98.5684,VALID,-0.0339617,VALID,19.2691,VALID,101,VALID,0.585742,
2002-04-24, 02:11:00,VALID,914.852,VALID,0,VALID,98.7643,VALID,-0.0339617,VALID,19.3203,VALID,108,VALID,0.571752,
2002-04-24, 02:12:00,VALID,914.855,VALID,0,VALID,98.7375,VALID,-0.0169808,VALID,19.3655,VALID,119,VALID,0.704649,
2002-04-24, 02:13:00,VALID,914.854,VALID,0,VALID,98.796,VALID,0,VALID,19.4045,VALID,116,VALID,0.858347,
2002-04-24, 02:14:00,VALID,914.868,VALID,0,VALID,98.8431,VALID,-0.0169808,VALID,19.4463,VALID,114,VALID,0.804688,
2002-04-24, 02:15:00,VALID,914.855,VALID,0,VALID,98.8291,VALID,-0.0339617,VALID,19.485,VALID,101,VALID,0.640625,
2002-04-24, 02:16:00,VALID,914.869,VALID,0,VALID,98.8406,VALID,-0.0339617,VALID,19.5109,VALID,102,VALID,0.383013,
2002-04-24, 02:17:00,VALID,914.858,VALID,0,VALID,98.796,VALID,-0.0169808,VALID,19.5307,VALID,80,VALID,0.289864,
2002-04-24, 02:18:00,VALID,914.853,VALID,0,VALID,98.3243,VALID,0,VALID,19.3752,VALID,44,VALID,0.250206,
2002-04-24, 02:19:00,VALID,914.842,VALID,0,VALID,98.2772,VALID,-0.0679233,VALID,19.2718,VALID,44,VALID,0.202744,
2002-04-24, 02:20:00,VALID,914.824,VALID,0,VALID,98.4069,VALID,-0.0339617,VALID,19.2723,VALID,128,VALID,0.654916,
2002-04-24, 02:21:00,VALID,914.811,VALID,0,VALID,98.5621,VALID,-0.0169808,VALID,19.3014,VALID,148,VALID,1.06968,
2002-04-24, 02:22:00,VALID,914.804,VALID,0,VALID,98.7337,VALID,-0.0339617,VALID,19.3757,VALID,149,VALID,1.28906,
2002-04-24, 02:23:00,VALID,914.793,VALID,0,VALID,98.7185,VALID,-0.0169808,VALID,19.4336,VALID,152,VALID,1.23147,
2002-04-24, 02:24:00,VALID,914.804,VALID,0,VALID,98.7032,VALID,-0.0339617,VALID,19.4559,VALID,150,VALID,1.01182,
2002-04-24, 02:25:00,VALID,914.808,VALID,0,VALID,98.6562,VALID,-0.0509425,VALID,19.4696,VALID,154,VALID,0.913061,
2002-04-24, 02:26:00,VALID,914.808,VALID,0,VALID,98.6244,VALID,0,VALID,19.4629,VALID,154,VALID,0.951891,
2002-04-24, 02:27:00,VALID,914.822,VALID,0,VALID,98.5761,VALID,-0.0169808,VALID,19.443,VALID,154,VALID,0.835526,
2002-04-24, 02:28:00,VALID,914.83,VALID,0,VALID,98.5608,VALID,-0.0339617,VALID,19.4202,VALID,151,VALID,0.901933,
2002-04-24, 02:29:01,VALID,914.846,VALID,0,VALID,98.5824,VALID,-0.0169808,VALID,19.4043,VALID,147,VALID,0.983373,
2002-04-24, 02:30:00,VALID,914.836,VALID,0,VALID,98.5443,VALID,0,VALID,19.3819,VALID,142,VALID,0.730152,
2002-04-24, 02:31:00,VALID,914.827,VALID,0,VALID,98.543,VALID,-0.0509425,VALID,19.3563,VALID,136,VALID,0.255609,
2002-04-24, 02:32:00,VALID,914.835,VALID,0,VALID,98.5964,VALID,-0.0339617,VALID,19.3468,VALID,133,VALID,0.452665,
2002-04-24, 02:33:00,VALID,914.823,VALID,0,VALID,98.6905,VALID,-0.0849042,VALID,19.3533,VALID,119,VALID,0.477564,
2002-04-24, 02:34:00,VALID,914.833,VALID,0,VALID,98.6956,VALID,-0.0339617,VALID,19.3399,VALID,130,VALID,0.319912,
2002-04-24, 02:35:00,VALID,914.84,VALID,0,VALID,98.7592,VALID,-0.0339617,VALID,19.3399,VALID,97,VALID,0.813322,
2002-04-24, 02:36:00,VALID,914.831,VALID,0,VALID,98.8049,VALID,-0.0339617,VALID,19.3628,VALID,88,VALID,0.722957,
2002-04-24, 02:37:00,VALID,914.817,VALID,0,VALID,98.7732,VALID,-0.0509425,VALID,19.356,VALID,87,VALID,0.840255,
2002-04-24, 02:38:00,VALID,914.784,VALID,0,VALID,98.8736,VALID,0,VALID,19.3657,VALID,95,VALID,0.839543,
2002-04-24, 02:39:00,VALID,914.759,VALID,0,VALID,98.9461,VALID,-0.0339617,VALID,19.4045,VALID,116,VALID,0.984947,
2002-04-24, 02:40:00,VALID,914.72,VALID,0,VALID,98.9703,VALID,-0.0169808,VALID,19.44,VALID,118,VALID,0.95613,
2002-04-24, 02:41:00,VALID,914.702,VALID,0,VALID,98.9868,VALID,-0.0339617,VALID,19.4393,VALID,121,VALID,0.883042,
2002-04-24, 02:42:01,VALID,914.684,VALID,0,VALID,99.0249,VALID,-0.0339617,VALID,19.4885,VALID,115,VALID,0.945703,
2002-04-24, 02:43:00,VALID,914.666,VALID,0,VALID,99.0427,VALID,0,VALID,19.5111,VALID,117,VALID,1.22572,
2002-04-24, 02:44:00,VALID,914.635,VALID,0,VALID,99.0567,VALID,0,VALID,19.5397,VALID,109,VALID,1.30449,
2002-04-24, 02:45:00,VALID,914.601,VALID,0,VALID,99.0555,VALID,-0.0339617,VALID,19.5496,VALID,111,VALID,1.14782,
2002-04-24, 02:46:01,VALID,914.594,VALID,0,VALID,99.0555,VALID,-0.0679233,VALID,19.5628,VALID,112,VALID,0.862805,
2002-04-24, 02:47:00,VALID,914.557,VALID,0,VALID,99.0262,VALID,-0.0169808,VALID,19.5596,VALID,114,VALID,0.498311,
2002-04-24, 02:48:00,VALID,914.533,VALID,0,VALID,99.0262,VALID,-0.0339617,VALID,19.566,VALID,117,VALID,0.444712,
2002-04-24, 02:49:00,VALID,914.524,VALID,0,VALID,99.0224,VALID,-0.0169808,VALID,19.5596,VALID,103,VALID,0.34013,
2002-04-24, 02:50:01,VALID,914.496,VALID,0,VALID,98.9855,VALID,-0.0339617,VALID,19.5337,VALID,67,VALID,0.113281,
2002-04-24, 02:51:00,VALID,914.484,VALID,0,VALID,98.9474,VALID,-0.0339617,VALID,19.4915,VALID,67,VALID,0,
2002-04-24, 02:52:00,VALID,914.472,VALID,0,VALID,98.8838,VALID,-0.0339617,VALID,19.4368,VALID,41,VALID,0.276394,
2002-04-24, 02:53:01,VALID,914.476,VALID,0,VALID,98.8139,VALID,-0.0169808,VALID,19.3849,VALID,28,VALID,0.45484,
2002-04-24, 02:54:00,VALID,914.459,VALID,0,VALID,98.8088,VALID,0,VALID,19.3687,VALID,28,VALID,0.101162,
2002-04-24, 02:55:00,VALID,914.438,VALID,0,VALID,98.8304,VALID,0,VALID,19.3588,VALID,28,VALID,0,
2002-04-24, 02:56:00,VALID,914.441,VALID,0,VALID,98.8571,VALID,0.0169808,VALID,19.3779,VALID,28,VALID,0,
2002-04-24, 02:57:01,VALID,914.43,VALID,0,VALID,98.8736,VALID,0,VALID,19.4105,VALID,28,VALID,0,
2002-04-24, 02:58:00,VALID,914.45,VALID,0,VALID,98.8812,VALID,0,VALID,19.4266,VALID,28,VALID,0,
2002-04-24, 02:59:00,VALID,914.442,VALID,0,VALID,98.8698,VALID,0.0169808,VALID,19.4425,VALID,28,VALID,0,
2002-04-24, 03:00:00,VALID,914.442,VALID,0,VALID,98.8431,VALID,0.0169808,VALID,19.4358,VALID,28,VALID,0,
2002-04-24, 03:01:00,VALID,914.437,VALID,0,VALID,98.8037,VALID,0,VALID,19.4234,VALID,28,VALID,0,
2002-04-24, 03:02:00,VALID,914.434,VALID,0,VALID,98.7541,VALID,0,VALID,19.401,VALID,28,VALID,0,
2002-04-24, 03:03:00,VALID,914.446,VALID,0,VALID,98.7719,VALID,0.0169808,VALID,19.3784,VALID,28,VALID,0,
2002-04-24, 03:04:01,VALID,914.429,VALID,0,VALID,98.7884,VALID,0.0169808,VALID,19.3814,VALID,28,VALID,0,
2002-04-24, 03:05:00,VALID,914.443,VALID,0,VALID,98.7083,VALID,0,VALID,19.3496,VALID,28,VALID,0.192107,
2002-04-24, 03:06:00,VALID,914.428,VALID,0,VALID,98.7375,VALID,0,VALID,19.3205,VALID,28,VALID,0.281033,
2002-04-24, 03:07:01,VALID,914.41,VALID,0,VALID,98.7668,VALID,-0.0169808,VALID,19.3302,VALID,31,VALID,0.352764,
2002-04-24, 03:08:01,VALID,914.4,VALID,0,VALID,98.796,VALID,0,VALID,19.3397,VALID,33,VALID,0.351563,
2002-04-24, 03:09:00,VALID,914.396,VALID,0,VALID,98.8316,VALID,0.0169808,VALID,19.356,VALID,46,VALID,0.276042,
2002-04-24, 03:10:00,VALID,914.397,VALID,0,VALID,98.7871,VALID,0,VALID,19.3526,VALID,55,VALID,0.266242,
2002-04-24, 03:11:00,VALID,914.397,VALID,0,VALID,98.7617,VALID,0.0169808,VALID,19.3429,VALID,60,VALID,0.115076,
2002-04-24, 03:12:00,VALID,914.386,VALID,0,VALID,98.7452,VALID,0,VALID,19.33,VALID,60,VALID,0,
2002-04-24, 03:13:00,VALID,914.397,VALID,0,VALID,98.8316,VALID,0.0169808,VALID,19.3329,VALID,112,VALID,0.28125,
2002-04-24, 03:14:00,VALID,914.381,VALID,0,VALID,98.8266,VALID,0.0169808,VALID,19.3563,VALID,121,VALID,0.400288,
2002-04-24, 03:15:01,VALID,914.361,VALID,0,VALID,98.8342,VALID,0,VALID,19.3489,VALID,100,VALID,0.620265,
2002-04-24, 03:16:00,VALID,914.36,VALID,0,VALID,98.7884,VALID,0,VALID,19.3392,VALID,82,VALID,0.598242,
2002-04-24, 03:17:00,VALID,914.356,VALID,0,VALID,98.4858,VALID,0,VALID,19.2363,VALID,57,VALID,0.682692,
2002-04-24, 03:18:01,VALID,914.33,VALID,0,VALID,98.4464,VALID,0.0169808,VALID,19.1558,VALID,54,VALID,0.836328,
2002-04-24, 03:19:00,VALID,914.317,VALID,0,VALID,98.5583,VALID,0.0169808,VALID,19.1551,VALID,60,VALID,0.926282,
2002-04-24, 03:20:00,VALID,914.307,VALID,0,VALID,98.6256,VALID,0.0169808,VALID,19.1752,VALID,60,VALID,0.963796,
2002-04-24, 03:21:00,VALID,914.288,VALID,0,VALID,98.7986,VALID,0,VALID,19.2432,VALID,66,VALID,0.927787,
2002-04-24, 03:22:00,VALID,914.286,VALID,0,VALID,98.8774,VALID,0,VALID,19.323,VALID,61,VALID,0.872396,
2002-04-24, 03:23:00,VALID,914.258,VALID,0,VALID,98.8863,VALID,0.0169808,VALID,19.372,VALID,65,VALID,0.816406,
2002-04-24, 03:24:00,VALID,914.248,VALID,0,VALID,98.9652,VALID,0.0339617,VALID,19.4562,VALID,87,VALID,0.682165,
2002-04-24, 03:25:00,VALID,914.24,VALID,0,VALID,98.9397,VALID,0,VALID,19.4848,VALID,114,VALID,0.454055,
2002-04-24, 03:26:00,VALID,914.239,VALID,0,VALID,98.9041,VALID,0.0169808,VALID,19.5046,VALID,122,VALID,0.672266,
2002-04-24, 03:27:00,VALID,914.244,VALID,0,VALID,98.8291,VALID,0,VALID,19.4947,VALID,120,VALID,0.699414,
2002-04-24, 03:28:00,VALID,914.232,VALID,0,VALID,98.852,VALID,0.0169808,VALID,19.5076,VALID,112,VALID,1.01895,
2002-04-24, 03:29:00,VALID,914.219,VALID,0,VALID,98.7871,VALID,0,VALID,19.5106,VALID,117,VALID,0.711328,
2002-04-24, 03:30:00,VALID,914.189,VALID,0,VALID,98.777,VALID,0,VALID,19.5178,VALID,107,VALID,0.797066,
2002-04-24, 03:31:00,VALID,914.185,VALID,0,VALID,98.6651,VALID,0.0169808,VALID,19.4952,VALID,84,VALID,0.621652,
2002-04-24, 03:32:00,VALID,914.17,VALID,0,VALID,98.6435,VALID,0,VALID,19.4495,VALID,89,VALID,0.622179,
2002-04-24, 03:33:00,VALID,914.159,VALID,0,VALID,98.6765,VALID,0.0169808,VALID,19.4303,VALID,96,VALID,0.626028,
2002-04-24, 03:34:01,VALID,914.126,VALID,0,VALID,98.6269,VALID,0.0339617,VALID,19.4174,VALID,104,VALID,0.517314,
2002-04-24, 03:35:00,VALID,914.115,VALID,0,VALID,98.6511,VALID,0,VALID,19.3948,VALID,137,VALID,0.633575,
2002-04-24, 03:36:00,VALID,914.105,VALID,0,VALID,98.6816,VALID,0,VALID,19.3779,VALID,149,VALID,0.587377,